927  
ASUS43 KFSD 211210  
RWRFSD  
 
WEATHER ROUNDUP FOR SE SOUTH DAKOTA/SW MINNESOTA/NW IOWA  
NATIONAL WEATHER SERVICE SIOUX FALLS SD  
700 AM CDT MON OCT 21 2019  
 
NOTE: "FAIR" INDICATES FEW OR NO CLOUDS BELOW 12,000 FEET WITH NO  
SIGNIFICANT WEATHER AND OR S TO VISIBILITY
.  
 
 
SDZ038>040-050-052>070-211300-  
SOUTHEAST SOUTH DAKOTA  
 
CITY SKY/WX TMP DP RH WIND PRES REMARKS
 
BROOKINGS CLOUDY 47 47 100 N7 29.41F  
CHAMBERLAIN CLOUDY 47 47 100 N14 29.50R  
6HR MIN TEMP: 47; 6HR MAX TEMP: 48;  
 
HURON CLOUDY 47 45 93 N10 29.46S  
6HR MIN TEMP: 43; 6HR MAX TEMP: 48;  
 
MADISON CLOUDY 46 46 100 N10 29.39F  
MITCHELL CLOUDY 47 45 93 N6 29.43S  
6HR MIN TEMP: 43; 6HR MAX TEMP: 47;  
 
SIOUX FALLS CLOUDY 46 43 89 N5 29.35F  
6HR MIN TEMP: 46; 6HR MAX TEMP: 51;  
 
WINNER CLOUDY 44 40 85 NW18 29.52R  
YANKTON CLOUDY 42 41 96 W6 29.37F  

 
 
MNZ071-072-080-081-089-090-097-098-211300-  
SOUTHWEST MINNESOTA  
 
CITY SKY/WX TMP DP RH WIND PRES REMARKS
 
FAIRMONT LGT RAIN 49 47 93 E9 29.35F  
JACKSON CLOUDY 48 46 93 N3 29.37F  
LUVERNE CLOUDY 48 46 93 NE7 29.37F  
MARSHALL RAIN 48 47 96 N9 29.40F FOG  
6HR MIN TEMP: 48; 6HR MAX TEMP: 53; 6HR PCP: 0.37;  
 
MONTEVIDEO RAIN 46 45 93 E9 29.44F  
PIPESTONE CLOUDY 48 48 100 CALM 29.38F FOG  
REDWOOD FALLS LGT RAIN 48 47 96 E10G22 29.41F  
TRACY LGT RAIN 50 50 100 E5 29.38F  
WORTHINGTON LGT RAIN 49 48 97 N5 29.36F FOG  

 
 
IAZ001>003-012>014-020>022-031-032-NEZ013-014-SDZ071-211300-  
NORTHWEST IOWA  
 
CITY SKY/WX TMP DP RH WIND PRES REMARKS
 
CHEROKEE DRIZZLE 51 51 100 CALM 29.33F  
DENISON MOCLDY 48 48 100 W6 29.33F  
ESTHERVILLE HVY RAIN 49 48 97 VRB6 29.34F FOG  
LE MARS MOCLDY 48 48 100 CALM 29.32F  
MAURICE CLOUDY 50 50 100 CALM 29.32F  
SHELDON N/A 50 50 100 CALM 29.33F  
SIOUX CITY PTCLDY 43 42 97 W8 29.33F  
6HR MIN TEMP: 43; 6HR MAX TEMP: 50; 6HR PCP: TRACE;  
 
SPENCER RAIN 51 48 89 E6 29.34F FOG  
6HR MIN TEMP: 51; 6HR MAX TEMP: 53; 6HR PCP: 0.15;  
 
STORM LAKE CLOUDY 50 48 93 CALM 29.29F  

 
 
ABBREVIATIONS USED IN REMARKS  
TC - TEMPERATURE IN CELSIUS  
WCI - WIND CHILL INDEX  
HX - HEAT INDEX  
VSB - VISIBILITY  
 
 
 
CLICK HERE TO GO TO PREVIOUS BULLETINS.

The Nexlab SD Page
The Nexlab IA Page
The Nexlab MN Page
The Nexlab NE Page Main Text Page